Location: Tamazert
(32.6352°N, 5.2072°W)
Time: 16:06:06
(UTC+00:00)

Helios 1B rocket - Pass Details

Date: 22 May 2022
Orbit: 569 x 577 km, 98.2° (Epoch: 06 July)

Event Time Altitude Azimuth Distance (km) Brightness Sun altitude
Rises 04:04:29 0° 358° (N) 2,777 6.4 -14.2°
Reaches altitude 10° 04:06:52 10° 346° (NNW) 1,875 5.3 -13.8°
Maximum altitude 04:10:16 27° 289° (WNW) 1,123 3.6 -13.2°
Enters shadow 04:12:03 19° 249° (WSW) 1,367 3.7 -12.9°
